Wind_Speed
11 7 8 9 9 11 10 12 7 6 3 12 11 10 10 9 9 12 10 8 13 13 13 15 14 16 13 9 11 16 19 20 21 20 20 22 25 26 24 24 25 24 20 15 16 21 25 28 28 27 27 25 26 25 24 26 26 25 26 26 25 23 23 22 24 25 25 25 24 22 22 20 18 16 15 15 13 10 7 6 5 4 3 3 4 4
11 9 10 8 5 9 9 11 11 3 2 10 12 10 9 9 8 10 12 8 10 10 9 13 15 18 15 10 12 15 16 17 20 22 22 24 26 26 26 26 26 22 18 18 21 25 26 28 29 28 27 26 26 25 25 26 26 26 27 26 25 23 23 23 23 24 24 25 25 23 22 20 18 17 16 14 11 9 7 6 5 4 3 4 5 5
10 9 8 8 5 10 11 11 14 9 2 4 8 10 8 8 7 8 10 7 9 8 6 11 14 15 10 7 10 15 16 18 23 25 24 25 26 26 26 27 25 22 20 22 26 28 28 28 29 29 28 27 27 26 26 26 26 27 27 26 25 24 24 24 24 23 22 23 23 21 20 19 17 16 14 11 10 9 7 6 5 4 5 6 6 4
11 8 9 10 7 11 13 13 16 11 5 3 5 10 8 8 8 7 9 8 9 4 3 11 12 7 3 2 7 14 16 15 19 24 23 22 25 25 26 25 24 24 24 25 27 29 29 28 29 30 29 28 27 27 27 27 27 28 29 28 26 25 26 25 23 22 22 22 21 20 20 18 16 14 13 11 10 9 8 7 6 6 7 7 6 5
7 6 12 12 8 12 14 15 16 10 6 5 4 7 7 10 8 3 7 9 7 2 2 10 9 5 4 4 6 10 11 9 12 20 21 22 24 23 23 24 25 26 25 26 27 27 28 27 28 29 29 28 28 29 28 27 28 28 30 30 27 27 28 25 24 24 23 22 20 21 21 19 16 14 13 12 11 10 9 8 7 7 8 7 6 5
4 6 14 15 10 13 14 14 16 12 6 5 6 7 6 10 8 4 10 11 6 7 7 10 8 4 5 6 7 9 9 9 10 14 19 21 20 21 23 25 27 27 25 25 24 25 26 25 24 26 27 29 30 30 28 28 28 29 31 31 30 30 28 26 25 24 21 20 20 20 21 19 17 16 14 13 11 10 9 8 7 7 7 6 5 4
3 4 11 17 13 13 13 12 16 14 7 4 5 7 6 6 8 9 14 12 7 6 7 9 9 3 3 7 9 10 11 14 12 11 16 18 18 22 25 26 28 27 25 24 24 25 27 25 23 23 25 28 30 29 28 28 29 30 31 31 31 29 26 25 23 19 18 20 19 18 18 17 16 15 13 11 10 9 9 10 8 6 6 6 5 4
7 7 9 16 15 12 12 10 14 16 9 3 3 7 8 5 6 8 11 10 4 2 4 7 7 3 4 6 8 11 12 14 15 13 15 17 19 24 27 27 27 27 25 24 25 26 28 28 25 23 23 27 29 29 29 29 30 29 27 26 26 25 23 22 18 15 17 19 19 17 16 16 14 13 12 11 11 10 11 11 8 6 6 6 5 3
10 11 8 14 14 11 9 7 12 16 9 4 3 7 8 5 4 5 7 6 2 3 7 7 6 6 5 3 5 11 12 13 17 17 16 20 24 26 29 29 26 26 25 25 26 27 27 28 26 24 24 25 28 28 28 29 29 25 23 22 20 18 20 19 16 16 18 17 17 16 14 16 15 13 12 12 12 11 11 10 7 7 7 5 4 3
8 13 9 11 12 9 8 7 12 16 9 4 5 5 4 4 2 1 3 3 3 5 9 10 10 8 5 3 5 10 11 12 14 14 16 22 28 28 29 30 27 26 26 25 25 25 25 26 25 24 25 27 27 25 25 26 25 21 20 20 16 15 19 19 17 18 18 16 15 14 14 16 16 14 13 13 12 10 11 11 9 8 6 4 3 3
4 11 10 7 8 8 10 8 11 17 12 5 7 6 4 4 2 1 0 1 3 6 6 10 13 9 6 4 6 8 9 11 12 12 15 20 25 27 27 29 27 25 26 25 23 22 24 25 25 25 27 28 25 22 23 23 22 20 20 18 17 18 20 20 19 18 17 16 14 15 17 16 14 13 12 12 12 10 11 11 9 7 5 4 4 5
2 8 8 6 9 11 12 9 10 17 15 6 7 7 5 4 2 2 2 1 6 6 3 7 11 9 9 5 6 9 11 13 14 13 14 18 23 26 25 26 26 23 24 26 25 24 25 25 27 28 27 25 23 22 23 22 22 21 19 19 19 19 20 20 19 18 17 16 16 17 18 14 12 11 9 9 10 10 10 10 8 6 5 4 4 6
4 4 5 7 12 15 14 10 8 13 14 9 8 8 7 6 5 5 5 4 5 3 2 6 10 8 8 4 5 12 13 14 15 15 17 19 22 24 22 22 24 22 22 26 28 27 26 28 30 30 28 25 23 23 25 25 23 21 20 20 20 19 19 19 17 16 17 18 17 17 16 13 11 9 7 8 10 10 9 8 7 6 4 3 5 7
4 3 6 9 11 15 15 11 9 11 14 13 10 10 9 6 6 7 6 3 4 2 3 3 7 5 4 3 6 13 14 16 18 17 16 13 16 20 21 21 23 22 22 24 28 29 28 30 31 31 29 25 23 25 26 25 22 21 21 21 20 19 18 16 15 16 17 17 17 15 14 13 10 8 8 8 9 9 8 7 6 4 2 3 6 7
6 5 8 10 8 14 17 12 8 7 10 10 5 6 6 2 4 5 4 4 5 4 3 3 5 5 5 3 4 7 9 13 15 11 7 6 11 17 19 21 22 23 23 23 28 30 29 31 32 30 28 24 25 27 27 23 20 21 22 21 21 20 17 15 16 16 15 15 16 15 14 12 10 9 10 11 10 9 8 6 4 2 2 5 7 5
7 2 7 10 6 13 17 10 6 8 9 7 2 5 6 2 2 2 1 2 4 4 4 3 3 2 2 0 1 0 2 6 9 8 8 10 13 18 20 22 23 24 24 24 27 30 29 30 31 31 28 25 25 28 27 22 21 22 22 21 21 19 17 16 15 15 14 13 14 14 12 11 11 12 13 14 13 11 8 5 3 1 3 6 7 3
7 2 8 12 8 12 17 11 9 10 7 5 5 7 4 2 3 3 2 2 3 5 4 3 3 2 2 1 1 1 3 6 9 11 13 14 17 21 22 23 25 26 26 25 27 30 30 29 31 31 30 26 25 28 27 22 21 23 21 21 22 19 17 16 15 14 14 14 14 13 11 10 12 14 15 16 14 11 7 5 2 2 5 7 6 1
6 4 9 16 11 12 18 15 12 9 4 5 8 6 4 3 2 1 3 2 4 6 3 3 6 5 5 4 2 3 6 7 9 12 13 14 18 21 21 24 26 27 27 25 26 30 29 29 31 32 31 28 25 27 28 24 22 21 21 23 22 19 18 17 15 15 15 15 14 13 11 12 14 15 17 17 14 9 6 4 1 3 6 7 5 1
5 4 6 14 13 10 15 14 11 9 5 5 6 5 3 4 2 1 2 3 6 5 2 3 4 4 5 4 2 6 9 9 10 12 12 15 18 20 21 24 25 26 26 25 26 29 29 30 31 31 31 28 25 26 28 25 23 21 20 21 20 18 19 16 15 15 14 14 14 13 13 14 15 17 19 18 13 8 6 4 1 3 6 6 3 3
3 2 4 10 10 9 11 10 11 11 5 2 5 6 2 1 2 2 1 2 4 4 3 4 3 4 5 4 5 10 11 11 12 12 13 16 20 22 22 25 27 28 28 27 28 30 29 30 31 30 30 27 24 26 27 25 23 20 19 19 19 20 18 14 15 15 14 14 15 14 15 16 16 19 19 16 11 10 8 4 2 5 6 5 2 4
1 1 4 8 7 8 10 9 11 12 8 5 8 8 5 2 1 2 1 0 2 3 3 4 4 4 4 3 7 11 10 11 14 13 13 15 19 21 23 26 29 30 30 29 28 30 31 31 30 30 29 26 25 27 27 26 24 20 19 19 19 19 17 16 17 16 14 15 16 17 18 18 17 18 17 14 13 12 8 3 5 6 6 5 0 6
1 1 4 7 7 8 8 5 6 9 9 8 6 5 6 6 3 4 4 1 1 0 2 3 3 3 3 2 4 6 7 9 12 11 10 13 19 21 23 26 28 29 30 28 27 30 31 30 30 30 28 25 27 28 28 26 24 22 21 20 19 18 17 18 18 16 16 17 17 19 19 17 16 17 15 15 15 11 5 4 6 7 6 4 2 7
2 1 3 6 5 4 4 5 8 9 7 6 5 4 5 5 5 7 5 2 1 1 1 1 2 2 2 1 2 4 5 8 10 8 8 13 19 22 22 24 25 26 27 26 27 30 30 30 31 30 29 28 28 29 28 25 24 23 21 20 20 19 18 20 20 18 18 21 20 20 18 15 15 16 17 18 15 8 5 7 7 6 6 3 4 8
3 1 3 6 4 3 3 5 9 8 7 7 6 6 7 6 4 5 3 2 2 2 2 2 2 1 2 2 1 3 4 8 10 10 12 15 19 21 23 24 24 23 24 26 28 29 29 30 31 30 30 29 28 28 26 25 24 23 22 21 20 18 20 24 23 18 18 21 21 21 20 16 14 17 20 17 10 7 9 8 7 7 5 2 6 9
3 1 3 7 7 5 5 7 9 9 9 9 6 6 8 6 4 2 2 1 2 2 1 2 3 1 2 3 2 2 5 8 10 12 15 18 20 22 22 23 23 23 26 28 29 29 31 32 31 32 32 29 28 27 25 26 26 23 22 21 21 21 22 22 21 18 17 20 21 22 21 19 18 19 17 12 9 10 10 8 7 7 5 4 8 9
2 2 2 6 8 8 8 8 8 9 10 8 7 8 9 9 9 5 2 3 4 2 1 4 4 1 1 2 1 3 6 8 10 13 16 18 21 23 22 22 23 25 28 30 30 30 31 32 32 32 31 29 28 27 26 28 26 22 22 21 21 24 23 20 21 21 18 18 21 21 20 20 20 17 13 12 12 12 10 9 9 7 5 7 9 10
2 1 1 4 6 8 7 4 5 7 10 10 10 11 9 8 8 5 3 4 4 3 3 6 4 4 4 1 3 5 7 9 11 13 16 18 22 24 23 22 25 28 29 30 30 30 30 32 33 33 32 30 28 26 28 28 25 23 25 22 21 24 24 24 27 23 17 18 20 21 20 20 18 15 15 15 14 11 10 10 8 6 7 10 10 10
2 3 3 5 7 5 3 7 10 11 10 9 10 11 8 5 5 5 4 3 5 4 6 5 2 3 7 2 6 7 7 8 10 12 16 20 23 24 24 24 27 30 30 29 30 30 31 34 35 33 32 31 27 26 28 28 25 25 26 23 22 23 25 28 28 21 16 19 20 20 21 20 19 18 17 16 13 12 11 10 9 8 10 11 11 12
4 5 3 4 5 6 4 8 15 14 10 11 13 12 8 7 7 7 5 2 5 6 5 3 2 6 5 1 4 7 7 8 10 13 17 21 23 24 25 25 27 29 31 31 30 31 33 35 36 35 34 32 28 27 29 29 27 26 25 23 23 24 26 28 26 20 17 18 20 22 22 22 21 19 17 15 13 12 11 11 10 11 13 13 13 13
2 4 3 4 4 5 5 8 15 16 13 14 16 15 11 9 10 9 6 4 3 4 3 3 4 7 4 1 2 6 9 10 12 15 19 22 24 25 27 27 26 27 31 33 33 34 34 34 35 35 34 32 29 29 32 30 27 26 24 23 24 25 27 27 23 21 18 18 21 24 23 22 20 17 17 15 13 12 12 13 12 13 14 14 14 14
3 3 2 3 3 5 4 8 14 16 15 15 15 14 12 11 10 9 6 3 2 5 2 2 6 5 1 0 2 7 12 13 12 16 20 22 24 26 27 28 27 26 29 33 36 37 35 33 34 33 31 30 28 31 33 30 28 27 25 23 25 27 26 23 23 22 19 17 21 23 21 19 18 17 16 14 13 13 14 14 14 14 15 15 15 15
4 2 1 3 4 4 3 7 12 13 12 11 10 10 11 10 8 6 4 4 6 6 2 1 5 3 2 2 4 8 12 14 14 16 19 22 24 26 26 28 28 27 27 31 35 36 34 34 36 34 32 31 31 33 33 29 28 29 25 23 27 28 24 22 24 22 17 16 19 20 19 18 18 16 15 14 15 15 15 15 15 15 15 16 16 16
2 2 2 3 3 3 3 6 11 11 9 6 5 9 12 10 7 5 3 4 6 5 3 3 5 2 1 3 7 8 11 12 15 18 20 22 24 25 25 27 30 29 29 30 31 33 33 34 35 34 32 31 32 33 32 27 27 29 24 23 29 28 22 23 23 19 15 16 19 20 20 19 17 16 15 15 15 15 15 16 16 16 16 17 17 17
1 2 1 2 3 4 5 7 9 9 7 4 0 3 7 7 9 9 5 5 5 3 1 3 3 3 2 6 7 8 11 13 16 21 22 23 26 26 25 27 29 30 32 32 31 31 33 32 32 32 32 32 33 32 27 22 23 26 23 24 30 29 25 25 23 18 16 18 19 20 19 17 16 15 15 15 15 15 16 16 16 16 16 17 17 17
2 3 1 1 1 4 5 7 9 6 3 1 3 0 1 2 6 8 5 2 3 2 3 2 3 4 5 5 4 7 11 13 16 21 23 25 28 28 27 28 28 29 32 34 32 30 30 30 30 31 32 32 31 27 23 19 21 25 25 24 29 31 29 26 22 17 17 19 19 20 18 17 16 15 15 15 16 16 17 17 17 17 17 18 18 18
3 2 2 2 2 4 6 6 6 4 1 2 3 2 2 2 4 6 5 3 1 1 2 2 2 3 4 3 3 7 10 12 14 18 21 25 27 27 28 29 29 29 29 31 31 31 31 30 30 30 31 31 28 25 24 21 20 23 25 24 28 31 29 24 19 17 18 19 20 19 18 17 16 15 15 16 17 18 18 18 18 18 18 19 18 18
5 2 2 2 2 2 5 3 2 2 1 2 3 2 2 2 2 3 3 2 1 1 1 2 2 2 3 3 5 8 11 11 10 12 18 23 25 26 26 25 26 27 26 27 29 31 32 30 29 29 29 29 28 26 25 24 22 21 23 25 29 31 29 24 21 20 19 19 19 19 17 16 14 14 15 17 18 19 18 18 18 18 19 19 19 19
6 4 2 2 2 0 4 5 3 2 3 2 1 0 1 1 2 2 2 3 1 1 2 3 4 5 5 6 9 12 12 9 5 9 17 22 21 22 23 22 24 27 28 28 30 31 32 30 28 28 28 27 27 26 25 25 26 24 23 24 29 32 30 27 24 22 21 19 18 18 16 12 11 14 16 17 19 19 18 18 19 19 19 20 20 19
4 3 2 3 3 1 4 5 2 2 2 1 1 2 3 2 2 3 3 3 1 1 4 5 6 8 7 9 13 12 7 4 1 5 16 24 22 22 23 23 26 29 29 29 30 30 31 30 28 28 29 28 27 27 25 25 27 27 24 24 29 32 31 28 26 24 22 19 17 17 16 11 11 14 16 17 19 19 19 19 19 19 20 19 18 18
3 1 1 4 3 2 3 3 1 1 1 1 2 3 4 1 2 5 5 3 2 1 3 6 9 10 10 12 12 6 1 0 2 2 15 26 26 24 26 26 27 29 29 29 30 30 30 30 29 29 30 30 28 27 26 26 28 29 26 25 28 32 32 30 27 25 22 18 17 18 17 14 14 16 17 19 20 20 20 21 20 19 20 20 20 19
3 3 2 3 3 2 3 3 2 1 1 1 3 5 3 1 3 3 4 1 3 3 1 6 10 12 12 11 8 2 1 3 5 1 16 26 26 25 26 26 26 28 28 28 29 29 29 29 29 28 29 30 30 30 29 28 28 29 28 27 29 31 32 31 28 25 22 19 19 19 18 17 18 18 18 20 21 21 21 20 19 19 21 22 21 20
3 2 2 2 2 2 2 3 2 1 0 2 6 7 2 2 2 2 3 1 3 5 3 5 10 12 13 10 6 4 3 6 8 4 16 22 23 23 25 25 26 27 27 28 29 29 29 28 29 29 30 31 32 31 30 29 29 29 28 28 29 29 30 30 29 26 23 21 20 20 19 18 18 18 19 21 21 21 21 20 19 20 21 22 21 20
3 2 1 1 0 1 2 2 2 2 1 6 8 4 1 1 3 5 4 2 2 5 6 5 8 11 13 12 8 7 5 7 9 8 13 17 19 21 23 24 25 26 26 27 28 28 28 27 28 30 31 30 31 31 30 30 31 30 30 30 30 28 28 30 29 26 24 22 22 21 20 19 19 20 21 22 22 21 22 22 21 20 21 21 20 21
2 2 1 0 0 1 2 3 2 0 3 8 7 2 2 3 6 7 5 4 6 7 9 9 6 8 10 12 11 8 3 3 7 8 9 12 15 18 21 22 24 24 24 25 25 26 26 26 28 29 29 29 29 30 30 31 32 32 31 31 29 27 28 30 29 27 24 22 22 23 22 21 21 22 23 24 22 22 23 23 21 21 21 22 21 21
3 2 1 1 1 1 1 1 1 2 5 7 6 5 5 7 8 8 8 9 10 10 12 14 11 7 6 6 6 6 4 2 1 4 5 6 10 14 18 21 23 23 23 23 24 24 24 24 25 27 27 27 28 28 29 30 31 31 30 29 26 25 27 30 29 27 25 24 24 24 23 22 23 24 25 25 23 23 24 23 22 23 23 23 22 22
2 2 1 1 0 0 1 2 3 4 6 8 8 7 8 9 10 12 13 13 14 14 14 15 15 14 12 9 6 4 2 1 1 0 1 3 5 9 14 18 21 21 21 22 22 23 23 23 23 24 25 25 26 27 28 29 29 30 30 27 24 24 27 29 29 28 27 25 25 25 24 23 24 25 25 25 24 24 24 23 23 24 24 24 23 23
1 2 1 1 0 0 2 2 4 5 6 7 8 8 9 10 11 12 13 14 14 14 14 15 15 16 15 14 13 11 8 5 2 1 2 1 2 4 9 14 18 19 20 19 19 20 22 23 23 24 23 23 24 25 27 27 28 30 30 26 23 25 28 29 29 29 27 26 26 26 25 24 25 26 27 27 26 26 24 23 24 25 25 25 25 25
2 4 2 1 1 2 2 1 3 4 6 6 6 7 8 9 10 10 11 12 12 12 13 14 14 15 15 15 14 13 11 8 5 1 2 2 2 2 5 10 14 17 18 18 18 19 20 21 21 21 21 21 22 23 24 25 27 29 27 23 23 25 27 29 29 28 27 26 27 28 27 25 25 27 28 28 28 27 25 24 25 25 25 25 25 25
3 4 2 1 1 3 3 2 3 5 6 6 5 6 6 6 7 8 8 9 10 11 11 11 12 13 14 14 14 13 12 10 6 3 1 3 3 3 4 7 11 15 17 17 18 19 18 18 18 18 18 18 19 19 21 23 26 25 22 21 22 24 26 28 29 28 28 27 27 28 28 26 26 27 28 28 29 28 25 23 23 24 23 22 21 21
2 2 1 0 2 3 2 2 2 2 2 3 4 5 5 5 6 7 7 8 9 9 9 10 11 11 11 12 13 13 12 10 7 4 3 4 5 5 6 7 10 13 16 16 17 18 17 17 16 16 15 15 16 17 19 22 24 24 22 21 21 23 25 27 29 30 30 29 28 28 28 27 27 27 27 28 28 28 25 23 22 22 21 19 18 19
2 1 1 1 2 2 0 2 2 0 1 2 3 4 5 5 5 6 5 6 6 7 7 8 9 10 10 11 11 12 12 11 9 7 6 5 5 6 7 8 9 12 14 16 18 19 19 18 18 18 18 17 17 18 19 20 21 21 23 23 22 23 24 25 28 31 31 29 29 28 28 28 28 28 28 27 27 27 26 25 24 23 21 18 17 17
Wind_Direction
174 184 199 201 196 184 181 191 199 4 116 161 168 182 181 179 188 195 190 178 181 189 202 196 194 211 208 178 182 189 192 203 209 210 215 214 214 215 216 217 218 221 221 211 207 215 220 221 221 220 220 220 217 217 217 215 214 212 213 216 216 215 211 206 205 204 199 195 194 192 190 191 195 199 199 197 193 195 202 200 205 205 190 200 209 203
182 207 210 193 171 169 169 187 207 283 110 163 176 181 184 192 190 192 192 177 181 195 197 188 196 210 206 186 184 186 190 204 209 210 215 214 214 215 215 218 220 222 221 216 217 221 223 224 223 221 219 218 218 218 217 216 214 212 212 217 218 217 211 205 207 208 202 196 194 192 190 193 202 202 195 192 193 198 206 204 206 207 192 200 203 200
195 219 194 167 152 168 168 183 206 226 213 167 183 181 185 188 175 187 197 176 177 202 190 179 200 209 197 183 185 186 193 203 207 211 216 214 213 215 216 218 220 221 219 219 221 223 224 226 225 222 219 217 218 218 217 216 215 212 212 217 219 216 209 203 205 207 202 194 191 191 192 197 204 200 191 194 203 205 207 206 200 195 195 199 196 196
203 209 167 164 165 169 170 181 202 219 224 224 190 184 183 172 174 192 195 180 176 203 179 177 200 212 164 170 195 195 201 204 209 215 220 219 218 219 218 219 219 219 219 219 220 221 222 223 224 224 220 216 216 218 217 216 215 212 213 217 217 214 207 202 203 202 196 189 184 189 196 200 203 202 199 202 210 209 203 199 195 197 201 198 191 187
193 170 159 170 174 173 173 179 194 208 212 226 221 200 178 169 192 199 161 162 165 205 168 164 192 229 186 186 198 199 203 208 211 213 218 224 224 223 223 224 223 222 221 220 219 220 221 221 223 225 222 216 215 218 218 217 216 215 215 217 216 213 207 202 200 195 191 186 182 190 198 200 200 203 210 211 209 203 198 197 193 197 201 196 189 183
175 154 166 174 179 180 177 181 193 197 199 216 225 222 193 177 192 153 144 154 168 205 185 165 191 217 185 199 199 190 196 208 210 204 211 219 220 220 222 224 223 224 224 222 221 221 220 220 222 224 222 218 216 219 219 218 219 220 219 220 218 212 207 203 195 190 191 187 186 195 198 198 199 201 210 216 211 199 195 198 193 194 197 188 180 178
170 157 174 179 179 181 184 187 190 190 193 205 204 206 210 195 184 157 158 168 186 196 177 187 211 201 175 213 205 188 196 208 208 204 209 211 214 219 223 225 223 224 224 222 222 223 223 223 220 219 219 218 218 220 220 221 223 224 224 225 220 210 207 203 191 186 193 191 189 197 200 204 209 209 210 213 211 202 193 191 190 193 191 181 182 194
175 172 179 184 181 182 192 188 184 187 191 195 150 171 191 198 178 164 169 182 184 128 154 196 217 232 214 204 191 188 199 209 210 212 213 212 216 220 224 225 223 222 221 217 219 223 225 224 220 217 216 216 218 220 222 224 227 229 231 227 215 207 208 203 187 186 199 198 192 192 200 212 218 219 218 210 202 197 189 186 188 195 198 200 205 221
175 182 178 183 186 190 191 172 174 183 195 212 159 161 184 186 164 161 177 186 139 167 195 184 185 221 219 165 163 184 198 212 211 214 217 217 220 221 223 225 223 223 221 217 219 222 223 223 221 219 216 215 217 220 224 227 229 232 228 218 205 201 204 196 185 191 198 199 196 195 206 217 216 214 217 210 199 189 186 192 206 217 217 218 221 246
179 194 179 178 194 190 171 161 171 182 199 199 151 142 158 165 159 153 184 168 134 204 207 177 179 210 211 153 163 181 197 210 208 213 218 218 221 222 223 224 223 223 222 219 220 220 222 224 220 217 219 220 219 219 223 227 229 224 215 211 203 198 198 193 192 197 193 191 195 204 219 224 221 216 213 206 194 186 192 206 224 228 220 218 235 271
172 190 181 181 198 179 166 170 173 186 197 157 142 158 138 140 174 158 105 114 178 215 202 173 184 209 219 186 175 186 197 197 194 206 215 215 219 219 219 219 218 219 219 218 216 217 223 224 217 215 220 222 217 213 218 223 221 211 207 212 209 204 200 191 193 195 188 187 196 211 222 227 230 224 213 204 195 193 204 214 225 229 221 234 265 292
175 178 177 178 188 178 173 178 175 189 201 183 169 185 157 140 158 143 135 204 213 213 169 166 178 199 222 204 178 198 201 195 194 199 205 208 212 212 211 212 213 212 215 218 216 217 221 220 215 216 218 216 209 206 212 214 209 205 209 213 209 208 201 187 188 191 187 192 204 214 219 225 233 226 209 204 206 210 213 214 223 231 236 258 291 313
208 177 171 172 183 188 184 178 175 189 203 204 191 187 177 166 164 174 182 194 210 202 74 161 169 190 229 230 190 202 205 203 202 202 204 204 206 203 198 201 206 206 207 212 216 215 214 214 213 213 213 208 200 202 208 208 207 207 209 210 208 206 197 184 184 190 192 201 210 214 219 224 225 214 196 200 210 214 213 213 222 232 247 282 316 326
185 167 187 183 183 194 192 181 178 188 197 202 195 189 187 172 169 181 178 174 188 160 57 157 174 195 225 216 200 202 207 208 206 209 210 201 196 192 187 191 198 201 201 205 211 211 211 212 211 210 209 202 196 202 207 208 208 206 204 206 204 199 190 179 181 191 198 210 215 215 221 223 209 190 192 198 201 206 209 214 223 234 269 314 330 332
174 169 188 192 179 185 196 197 181 174 191 201 199 191 197 195 181 176 165 169 163 136 100 143 184 193 172 167 196 200 211 213 209 212 209 190 184 180 181 188 195 199 197 200 207 209 211 212 208 206 205 199 199 205 208 205 201 199 201 205 202 197 191 183 185 194 202 212 217 212 212 210 194 189 199 195 194 203 207 209 217 233 314 332 338 333
191 183 169 191 195 180 193 203 167 162 188 197 173 189 205 214 154 114 114 141 117 125 146 164 204 223 179 85 12 170 218 209 206 202 188 179 174 174 181 189 195 197 194 196 203 206 210 210 206 204 202 200 202 207 207 201 196 199 202 203 203 200 197 193 194 202 206 210 215 210 204 197 190 195 199 194 194 198 200 203 205 244 342 347 347 338
193 173 155 182 213 198 191 189 182 185 180 170 184 192 185 92 94 115 108 54 101 169 172 171 206 228 216 211 59 120 165 176 188 189 186 180 171 176 186 189 193 194 192 194 198 201 205 205 203 203 203 201 201 205 205 199 200 203 202 203 204 199 199 199 201 209 210 211 212 207 203 202 197 195 195 196 194 190 196 205 195 360 351 350 350 29
185 151 164 181 195 202 191 186 199 207 170 164 190 181 125 72 22 120 148 130 168 185 165 177 204 198 186 185 97 138 165 173 186 185 181 176 175 183 189 188 191 193 192 192 195 200 203 202 203 203 206 204 200 204 206 202 206 208 202 204 203 202 206 202 200 207 208 208 208 201 197 201 199 194 194 196 192 187 198 197 149 355 340 342 346 123
196 142 166 186 185 181 184 188 200 211 219 208 184 153 148 187 199 152 161 166 172 179 157 172 209 226 202 194 162 181 185 182 185 182 177 178 184 188 186 186 190 190 190 190 193 198 200 203 204 203 206 206 200 205 207 204 210 210 204 203 202 209 214 204 198 203 204 203 200 194 197 197 193 194 196 195 192 196 194 173 132 316 318 333 335 165
216 145 161 193 187 164 175 194 198 193 209 233 174 167 205 244 178 163 154 164 174 178 168 167 193 228 215 202 190 196 197 184 176 178 185 190 190 185 180 182 186 186 188 189 191 195 198 201 202 203 206 202 196 202 205 202 204 204 204 203 203 209 211 204 203 204 204 200 191 190 197 194 191 195 195 193 199 202 186 169 257 289 307 327 317 171
249 201 161 176 176 166 183 203 200 186 175 183 185 179 179 170 175 194 150 89 189 179 174 182 202 212 203 201 203 203 198 184 178 183 193 194 187 181 179 180 183 186 188 188 189 193 197 199 199 202 205 199 195 201 203 200 198 198 200 201 203 203 197 199 202 198 199 196 186 189 193 188 189 191 192 197 203 194 176 198 266 281 309 328 227 171
185 202 155 163 176 185 186 177 181 180 171 181 191 177 175 175 179 192 179 153 317 162 160 184 229 218 181 184 220 212 199 189 187 188 188 184 181 181 182 181 182 186 188 187 188 191 195 196 196 199 202 198 197 201 202 201 197 195 196 197 201 197 189 197 194 179 186 192 187 189 189 185 186 185 193 203 198 184 182 241 261 277 306 323 175 173
177 181 152 154 167 174 149 140 168 171 155 173 196 176 173 182 191 200 191 160 158 139 118 149 270 241 137 57 276 237 214 196 189 180 167 171 179 181 181 182 183 186 187 187 188 190 192 194 194 197 199 198 199 200 201 201 197 194 194 193 195 191 186 190 181 168 181 190 186 185 184 181 184 189 200 199 189 188 222 235 248 271 295 300 186 178
184 207 142 127 125 121 103 138 168 167 156 183 200 181 182 188 191 204 201 147 174 179 148 176 234 219 80 29 306 240 213 187 176 171 162 166 177 181 179 180 181 182 184 185 188 190 190 191 193 196 198 199 201 202 201 201 197 194 193 191 192 190 185 181 176 173 184 187 186 187 185 183 188 194 196 190 188 212 221 220 242 271 285 254 192 184
187 243 145 138 149 151 131 148 172 186 191 195 187 176 186 170 136 174 192 144 213 220 171 235 237 204 42 15 19 164 174 170 168 170 164 162 171 176 175 177 177 178 181 184 187 187 187 190 192 195 199 200 201 202 200 198 197 195 194 191 188 188 184 176 177 185 187 186 188 190 189 190 192 190 190 192 205 214 212 223 253 272 271 220 194 187
183 261 151 155 169 171 170 174 177 181 190 192 169 168 186 173 157 167 160 180 216 204 178 236 245 274 25 42 84 151 155 160 167 168 166 164 168 171 171 173 176 179 181 184 187 186 185 188 191 193 198 200 200 201 198 196 198 197 193 190 186 186 186 182 184 189 190 190 192 190 190 193 191 189 198 208 207 209 218 237 255 264 241 203 193 188
147 274 220 200 201 184 167 139 116 144 173 184 171 167 181 184 169 156 151 196 194 140 206 234 251 304 294 170 169 191 171 165 167 166 166 165 165 166 167 172 178 180 180 182 186 186 182 185 190 194 197 199 199 199 197 197 199 193 188 188 187 188 192 190 184 183 189 193 192 189 189 192 193 196 204 204 203 214 228 236 243 237 207 193 189 186
251 272 231 222 233 217 148 115 132 154 166 167 169 172 174 176 175 176 188 183 141 156 236 243 158 252 271 220 181 198 184 171 171 168 167 165 164 165 166 169 176 179 180 180 184 185 181 182 188 191 193 195 196 197 197 199 198 192 190 191 188 190 194 189 180 178 189 192 190 190 188 191 195 196 197 199 207 223 230 230 223 203 192 189 183 181
264 268 217 206 226 214 188 152 154 161 162 159 175 187 175 165 181 194 203 171 153 192 253 314 172 226 267 315 180 187 179 177 175 168 165 163 163 164 165 168 171 176 179 179 181 185 185 184 188 193 196 199 201 200 198 197 195 195 197 194 190 192 192 185 179 184 193 191 192 193 191 190 191 192 197 203 213 224 225 220 206 189 188 187 179 177
247 264 194 185 198 175 189 184 161 158 162 167 181 190 182 172 180 195 207 194 193 244 300 346 272 255 270 315 174 161 159 165 167 164 162 162 163 165 168 169 169 171 176 178 180 185 188 187 188 192 195 198 200 199 197 196 197 199 199 194 193 193 189 184 184 190 193 193 194 193 190 187 189 195 203 208 215 221 214 205 196 188 187 184 178 178
210 246 141 160 182 140 162 191 172 162 162 168 181 187 180 174 179 196 210 187 228 269 289 337 293 282 290 48 127 145 153 156 162 165 163 165 167 167 170 173 171 170 174 178 182 186 193 196 195 195 197 199 200 199 199 199 199 199 199 195 193 191 187 188 191 190 191 194 193 190 188 190 197 203 205 208 213 211 202 197 194 189 186 183 180 179
201 229 130 169 180 125 125 181 169 152 147 160 181 182 174 177 181 192 200 182 208 223 190 305 286 295 59 101 137 155 160 157 163 169 166 167 170 171 174 177 177 174 173 177 182 187 194 198 198 200 202 203 203 201 201 202 199 197 199 198 193 188 187 193 193 188 189 196 196 195 198 202 205 204 205 207 206 201 197 195 191 187 186 184 182 179
197 207 192 189 169 107 100 162 151 134 134 159 196 184 174 174 168 167 196 212 210 203 176 226 260 337 50 163 153 161 170 165 167 172 169 168 170 173 177 180 183 183 181 180 181 183 189 193 195 198 199 200 202 202 202 204 202 198 200 201 194 186 188 197 195 190 196 205 204 204 205 205 205 204 204 203 199 196 194 190 187 186 186 184 182 180
220 219 231 197 158 104 103 142 148 146 156 161 241 182 171 171 169 169 188 208 195 195 245 250 282 326 234 187 169 173 181 176 174 175 172 170 172 176 180 182 185 188 189 190 189 188 192 197 199 200 202 203 202 201 204 210 208 203 203 202 196 191 193 199 198 197 207 213 210 206 206 206 204 202 201 198 196 194 190 186 185 184 183 183 183 181
247 216 201 84 113 108 115 149 158 156 158 43 14 349 166 182 172 150 119 106 164 216 287 287 279 274 233 209 206 192 183 179 179 178 177 177 178 179 181 184 187 188 190 193 192 191 195 199 199 197 199 201 201 204 209 212 211 208 203 200 202 199 195 194 196 201 211 216 213 209 207 206 201 198 199 197 193 190 185 183 183 182 181 183 184 183
241 219 159 63 51 123 135 159 160 138 61 32 63 112 121 128 151 132 104 80 114 219 264 254 247 261 244 224 209 186 175 172 177 181 185 186 184 183 184 187 190 191 192 191 189 190 195 199 199 198 198 202 207 213 213 207 206 207 203 204 209 203 192 189 198 209 215 218 216 211 207 203 198 196 198 196 191 187 185 182 180 181 181 181 181 182
213 225 159 88 36 128 128 123 111 95 101 95 92 118 155 158 174 162 132 126 181 214 240 237 215 206 197 172 155 156 154 152 166 190 193 191 190 190 189 189 190 191 193 193 193 194 198 202 204 203 202 205 209 212 211 205 200 202 206 212 209 200 193 195 204 211 215 217 218 213 204 199 199 199 198 196 192 187 183 181 180 180 180 180 178 178
197 234 235 107 64 111 117 110 112 121 121 116 103 285 275 257 251 240 140 125 164 204 198 204 190 169 156 147 149 152 149 146 173 206 198 192 193 194 194 193 194 195 196 197 196 197 200 204 205 205 206 207 206 204 207 207 203 199 204 211 206 200 198 200 204 211 215 216 218 214 201 198 211 211 203 198 193 187 182 181 182 180 179 179 176 173
163 227 252 103 94 143 124 112 122 127 101 50 291 311 318 290 224 207 172 138 100 151 179 190 180 167 161 159 160 160 157 157 184 203 195 193 192 193 195 196 197 198 199 200 200 200 203 205 205 206 209 210 204 201 204 210 209 203 202 207 208 206 203 203 208 214 215 215 217 210 200 203 214 207 201 198 193 186 182 181 180 180 178 175 171 168
57 5 46 89 87 106 109 93 101 123 68 310 276 317 339 359 171 179 170 143 53 86 176 189 182 174 169 165 165 170 181 34 356 231 195 193 192 193 196 198 199 199 200 202 204 205 205 205 205 207 210 209 205 204 206 209 209 206 205 209 211 209 208 211 216 216 213 211 210 204 200 204 202 193 193 195 191 187 186 184 183 183 180 174 168 168
19 10 43 81 84 88 90 88 98 96 350 285 290 319 341 115 166 165 149 125 340 351 125 181 182 178 175 171 169 180 32 31 5 244 190 191 193 195 198 202 204 204 204 205 206 207 207 206 206 207 209 208 208 208 206 205 206 207 209 213 213 212 213 217 219 216 210 207 207 205 204 205 201 194 192 192 191 191 190 187 187 188 183 175 170 172
9 12 32 45 57 64 74 93 103 106 61 317 312 316 319 147 141 114 117 193 313 353 42 155 174 177 180 176 150 117 83 34 32 122 176 186 194 196 198 202 203 203 206 207 208 209 209 207 205 206 208 209 210 210 208 206 207 209 212 216 218 218 218 218 217 214 209 207 210 209 206 203 200 195 191 191 193 195 189 184 187 189 183 177 174 176
343 353 41 45 89 89 67 75 95 117 54 345 330 321 359 86 125 138 140 133 42 38 58 106 156 173 181 181 158 124 86 47 55 106 164 183 192 197 200 203 203 204 206 206 206 208 209 206 204 206 208 210 211 212 210 208 209 212 215 217 217 218 218 217 215 211 208 208 210 209 205 199 196 192 190 192 196 196 189 184 185 187 184 180 179 181
341 2 47 34 276 69 71 65 71 141 327 339 345 34 76 74 117 132 124 98 82 68 66 76 108 157 175 187 191 184 164 61 67 93 143 176 192 200 202 203 206 208 208 207 206 206 207 206 205 206 209 211 213 215 214 212 213 216 218 218 217 216 216 215 212 209 208 208 209 209 205 198 193 191 192 195 198 197 191 187 187 187 185 183 184 188
4 351 359 359 338 50 90 63 347 308 323 346 19 70 78 84 97 92 80 80 78 69 67 69 73 92 123 161 195 210 223 233 74 82 111 152 186 199 202 203 206 208 209 208 207 206 207 207 208 209 211 213 215 217 217 217 218 221 222 222 220 217 214 212 209 207 207 207 208 208 205 199 195 193 193 196 201 198 193 192 192 190 187 187 190 194
342 324 330 15 306 255 42 17 350 345 360 22 51 72 77 76 70 61 59 59 55 53 58 62 63 65 71 76 72 58 44 4 292 307 74 112 161 188 199 203 205 206 208 207 206 207 207 208 211 213 214 215 217 219 220 220 222 226 228 226 222 218 214 211 209 207 206 207 208 207 204 200 197 196 195 198 202 201 197 198 198 195 191 190 193 197
337 334 350 45 15 53 69 21 343 349 11 32 57 69 71 70 63 56 53 47 42 42 43 47 53 55 57 58 57 53 51 48 38 277 274 294 143 172 192 201 204 205 205 207 206 206 207 208 209 211 214 216 218 220 222 222 224 226 226 223 222 220 215 211 209 207 205 206 208 207 204 201 198 197 197 199 202 202 201 202 201 199 197 196 195 196
334 340 350 22 12 60 106 25 357 27 40 46 66 73 70 71 67 60 54 47 40 36 35 37 43 45 46 48 48 46 46 46 50 58 254 254 236 198 198 204 207 205 204 204 205 205 207 208 209 211 215 217 219 220 222 225 227 227 225 221 220 222 218 213 211 209 206 207 208 207 205 203 200 198 198 200 203 204 203 203 203 203 203 201 198 196
304 325 329 292 33 91 100 32 31 79 73 54 64 78 81 84 76 65 60 52 44 38 36 37 41 41 41 41 39 38 38 39 47 71 178 212 209 213 221 216 210 207 206 203 202 206 209 210 210 211 211 214 218 220 223 228 230 228 225 221 221 221 219 215 211 209 209 210 209 208 205 203 201 201 201 202 204 205 206 207 208 207 206 204 203 202
325 340 313 220 97 109 100 357 355 118 100 52 62 80 90 94 83 71 63 54 48 43 37 38 44 44 41 37 37 39 40 41 50 77 138 175 181 194 216 220 211 207 206 202 201 205 209 211 212 211 207 209 215 219 225 231 231 225 219 218 220 221 220 217 211 208 209 210 210 208 205 202 202 204 205 205 205 205 206 211 214 211 205 203 205 205
13 22 326 29 84 104 43 340 335 282 119 78 80 91 100 99 90 82 70 58 56 54 45 43 48 50 48 46 44 44 46 51 64 86 116 147 168 184 205 219 216 207 203 201 200 202 204 207 210 211 210 209 211 217 226 232 231 223 217 216 218 220 221 220 216 211 209 211 212 209 206 204 204 205 206 206 207 206 207 208 210 207 204 204 206 205
Height
1461 1462 1461 1457 1455 1455 1459 1459 1458 1458 1456 1458 1462 1463 1463 1464 1465 1463 1462 1464 1464 1469 1470 1470 1473 1472 1472 1477 1478 1480 1483 1483 1484 1485 1486 1487 1488 1489 1489 1489 1489 1490 1493 1498 1500 1500 1502 1503 1505 1508 1510 1512 1513 1515 1517 1519 1521 1523 1524 1526 1527 1529 1531 1532 1533 1535 1537 1540 1542 1546 1548 1551 1553 1554 1555 1557 1559 1560 1561 1561 1561 1561 1561 1561 1561 1562
1459 1458 1454 1453 1454 1456 1460 1461 1460 1461 1459 1458 1460 1462 1463 1462 1463 1462 1461 1463 1464 1467 1468 1469 1471 1470 1469 1473 1476 1478 1481 1481 1482 1483 1483 1484 1486 1487 1487 1488 1488 1491 1494 1496 1497 1499 1500 1502 1504 1506 1508 1510 1512 1514 1516 1518 1520 1522 1523 1524 1526 1527 1529 1530 1532 1534 1536 1539 1543 1546 1548 1551 1553 1554 1555 1557 1558 1559 1560 1560 1561 1560 1560 1561 1561 1562
1457 1453 1451 1453 1455 1457 1460 1462 1462 1462 1461 1460 1458 1460 1463 1460 1460 1463 1462 1462 1464 1465 1466 1470 1471 1468 1468 1472 1474 1476 1477 1478 1479 1479 1480 1482 1484 1485 1486 1487 1489 1491 1493 1494 1495 1497 1498 1501 1503 1505 1507 1509 1511 1513 1515 1517 1519 1520 1521 1522 1524 1525 1527 1529 1531 1533 1536 1540 1544 1548 1549 1551 1552 1554 1555 1556 1557 1558 1559 1559 1559 1559 1560 1560 1561 1562
1452 1450 1450 1453 1456 1457 1459 1462 1462 1462 1463 1461 1458 1457 1459 1459 1459 1461 1462 1462 1463 1464 1465 1469 1470 1468 1471 1476 1475 1475 1475 1476 1478 1479 1480 1482 1483 1484 1485 1487 1489 1490 1491 1492 1494 1496 1497 1499 1501 1503 1505 1507 1510 1512 1514 1516 1517 1518 1519 1520 1522 1523 1525 1527 1530 1532 1536 1540 1545 1548 1549 1550 1552 1554 1555 1556 1557 1557 1558 1558 1558 1558 1559 1560 1560 1561
1447 1447 1449 1453 1455 1455 1458 1460 1460 1461 1462 1462 1460 1456 1455 1456 1456 1455 1458 1461 1463 1465 1464 1466 1473 1472 1472 1477 1476 1474 1476 1476 1478 1479 1480 1481 1482 1484 1486 1487 1488 1489 1490 1491 1492 1494 1496 1498 1499 1501 1504 1506 1509 1510 1512 1514 1516 1517 1517 1518 1520 1521 1523 1525 1528 1532 1536 1541 1545 1546 1548 1549 1551 1553 1554 1555 1555 1556 1556 1557 1557 1558 1558 1559 1559 1560
1446 1447 1448 1451 1454 1454 1455 1457 1457 1458 1459 1461 1460 1457 1454 1454 1454 1455 1456 1460 1466 1469 1462 1463 1476 1477 1471 1474 1474 1472 1475 1477 1477 1477 1478 1480 1481 1483 1484 1484 1486 1487 1488 1490 1492 1493 1495 1497 1499 1501 1503 1505 1507 1509 1511 1513 1514 1514 1515 1516 1517 1519 1521 1524 1528 1533 1538 1541 1543 1544 1546 1548 1549 1551 1552 1554 1554 1555 1555 1556 1556 1557 1558 1558 1559 1560
1446 1446 1446 1448 1451 1453 1454 1454 1454 1455 1458 1460 1456 1455 1456 1454 1453 1455 1454 1457 1464 1465 1459 1458 1467 1473 1472 1472 1470 1470 1474 1475 1475 1476 1476 1478 1480 1480 1481 1481 1483 1485 1487 1489 1491 1492 1494 1496 1498 1500 1501 1503 1505 1508 1509 1511 1511 1512 1513 1515 1516 1518 1521 1525 1531 1535 1538 1540 1542 1544 1546 1547 1548 1550 1551 1552 1553 1554 1554 1554 1555 1556 1557 1558 1559 1560
1443 1446 1447 1446 1449 1451 1452 1451 1451 1452 1456 1457 1453 1453 1457 1455 1454 1454 1452 1453 1457 1459 1460 1459 1460 1466 1468 1466 1465 1468 1471 1473 1473 1475 1475 1475 1477 1477 1477 1479 1481 1483 1485 1487 1488 1490 1492 1494 1496 1498 1500 1502 1504 1506 1508 1509 1509 1510 1512 1513 1515 1519 1523 1528 1534 1538 1539 1540 1542 1543 1545 1546 1548 1549 1550 1550 1551 1552 1553 1553 1555 1556 1557 1558 1559 1560
1441 1444 1446 1446 1448 1449 1448 1448 1449 1452 1454 1453 1451 1452 1454 1454 1454 1453 1451 1452 1456 1459 1461 1461 1461 1465 1464 1461 1465 1467 1470 1472 1471 1471 1472 1472 1473 1473 1474 1477 1479 1482 1483 1484 1486 1488 1490 1492 1495 1497 1499 1501 1503 1505 1506 1507 1508 1510 1512 1512 1516 1522 1525 1529 1535 1537 1538 1540 1542 1543 1545 1545 1546 1548 1548 1548 1549 1551 1552 1554 1555 1556 1557 1558 1558 1559
1441 1442 1444 1445 1446 1445 1446 1448 1448 1452 1452 1448 1450 1453 1452 1454 1454 1453 1452 1452 1458 1462 1458 1457 1459 1462 1462 1462 1466 1469 1468 1468 1467 1466 1466 1467 1468 1470 1472 1474 1477 1479 1481 1483 1485 1487 1489 1491 1494 1496 1498 1500 1502 1504 1505 1506 1508 1510 1512 1513 1518 1522 1525 1529 1532 1533 1535 1538 1540 1542 1544 1544 1545 1546 1546 1547 1548 1550 1552 1554 1555 1556 1557 1558 1558 1558
1439 1440 1442 1444 1444 1443 1445 1448 1448 1450 1449 1447 1450 1452 1453 1456 1454 1455 1455 1453 1461 1464 1456 1453 1455 1458 1460 1459 1460 1463 1460 1458 1460 1462 1461 1462 1464 1466 1468 1471 1474 1477 1479 1481 1484 1486 1488 1490 1493 1495 1496 1499 1501 1503 1503 1505 1507 1510 1512 1515 1518 1521 1523 1527 1529 1531 1533 1535 1538 1540 1541 1543 1544 1544 1545 1547 1548 1549 1551 1553 1554 1556 1557 1557 1557 1557
1439 1440 1441 1441 1442 1443 1444 1447 1448 1448 1447 1447 1449 1449 1454 1458 1457 1459 1460 1460 1465 1463 1455 1453 1454 1459 1459 1451 1450 1453 1451 1450 1452 1454 1455 1456 1458 1460 1463 1468 1472 1475 1477 1479 1482 1484 1486 1488 1491 1492 1494 1498 1500 1501 1502 1504 1507 1509 1511 1514 1517 1519 1522 1525 1528 1530 1532 1534 1536 1538 1540 1541 1542 1543 1544 1545 1547 1549 1550 1553 1554 1555 1556 1557 1556 1556
1440 1439 1439 1439 1440 1441 1442 1445 1448 1448 1445 1445 1446 1448 1454 1458 1461 1465 1463 1462 1463 1459 1457 1456 1454 1458 1454 1442 1442 1446 1445 1445 1444 1444 1447 1449 1451 1455 1460 1465 1469 1472 1474 1477 1479 1481 1484 1486 1487 1490 1492 1496 1498 1499 1501 1503 1505 1508 1510 1513 1515 1518 1521 1524 1528 1530 1532 1534 1536 1537 1539 1540 1541 1542 1542 1544 1547 1549 1551 1553 1554 1555 1556 1556 1555 1555
1442 1441 1438 1438 1439 1438 1438 1439 1443 1444 1441 1440 1442 1443 1448 1453 1461 1467 1464 1463 1462 1457 1459 1460 1456 1457 1451 1438 1436 1439 1439 1439 1439 1441 1443 1445 1449 1453 1458 1462 1466 1469 1471 1474 1476 1479 1481 1483 1485 1487 1490 1494 1496 1498 1500 1502 1504 1507 1509 1511 1514 1517 1521 1526 1528 1529 1531 1533 1535 1537 1538 1539 1540 1541 1542 1544 1547 1549 1551 1553 1554 1554 1555 1554 1554 1554
1440 1442 1437 1434 1434 1434 1435 1434 1435 1437 1437 1438 1436 1437 1442 1443 1449 1458 1458 1458 1459 1457 1460 1464 1458 1452 1446 1438 1433 1433 1435 1436 1439 1442 1443 1446 1450 1453 1457 1461 1464 1466 1468 1471 1474 1476 1479 1481 1483 1486 1489 1492 1494 1496 1499 1501 1503 1505 1507 1510 1513 1517 1521 1525 1527 1528 1531 1533 1534 1535 1537 1538 1539 1541 1542 1545 1547 1549 1551 1552 1553 1554 1553 1553 1553 1553
1436 1435 1430 1430 1431 1430 1433 1433 1432 1436 1440 1439 1436 1438 1441 1437 1438 1450 1454 1452 1453 1454 1459 1462 1455 1443 1437 1435 1433 1434 1436 1437 1439 1442 1444 1447 1450 1452 1456 1458 1460 1463 1465 1468 1471 1474 1477 1479 1481 1484 1488 1491 1493 1495 1497 1500 1502 1503 1506 1509 1512 1516 1520 1524 1526 1527 1530 1532 1533 1534 1535 1537 1539 1541 1542 1545 1547 1549 1551 1552 1552 1553 1553 1553 1553 1553
1433 1431 1426 1429 1432 1429 1431 1433 1432 1434 1437 1438 1439 1439 1437 1433 1435 1447 1457 1457 1454 1454 1457 1458 1450 1441 1437 1436 1435 1436 1436 1437 1439 1441 1443 1445 1447 1450 1452 1453 1457 1459 1461 1465 1468 1471 1474 1477 1480 1483 1486 1489 1492 1494 1496 1499 1501 1502 1506 1509 1512 1516 1519 1522 1525 1526 1529 1531 1532 1533 1535 1537 1539 1540 1542 1545 1547 1548 1550 1551 1552 1552 1552 1552 1552 1553
1427 1428 1426 1426 1430 1430 1429 1432 1433 1431 1431 1435 1438 1435 1433 1437 1439 1441 1450 1457 1455 1453 1457 1457 1449 1442 1440 1439 1438 1438 1438 1438 1439 1438 1441 1444 1445 1447 1448 1450 1453 1456 1459 1462 1466 1469 1473 1475 1478 1481 1484 1488 1491 1493 1495 1498 1500 1502 1505 1508 1511 1515 1517 1521 1523 1525 1528 1530 1531 1533 1534 1536 1539 1541 1543 1545 1546 1548 1549 1551 1551 1551 1552 1552 1552 1553
1421 1426 1427 1424 1425 1428 1429 1432 1434 1432 1430 1432 1432 1430 1432 1440 1443 1443 1448 1453 1453 1455 1457 1456 1452 1445 1437 1434 1435 1436 1436 1437 1437 1437 1439 1441 1441 1443 1445 1448 1452 1454 1458 1461 1464 1467 1470 1473 1476 1479 1483 1486 1489 1492 1494 1497 1499 1502 1505 1508 1512 1515 1516 1520 1522 1524 1526 1529 1531 1533 1534 1537 1539 1541 1543 1545 1546 1547 1549 1550 1550 1551 1552 1552 1552 1553
1420 1424 1429 1425 1422 1426 1428 1430 1431 1430 1431 1431 1430 1430 1432 1435 1436 1439 1443 1442 1445 1454 1456 1454 1454 1446 1431 1426 1427 1427 1428 1430 1433 1436 1436 1435 1436 1438 1442 1445 1449 1452 1454 1457 1460 1464 1467 1471 1474 1477 1481 1485 1488 1491 1493 1496 1499 1501 1505 1508 1512 1515 1517 1520 1522 1523 1525 1528 1531 1532 1534 1537 1539 1541 1543 1545 1546 1548 1549 1550 1550 1551 1552 1552 1552 1553
1421 1422 1426 1425 1424 1427 1427 1425 1424 1425 1429 1431 1430 1431 1434 1434 1434 1435 1439 1439 1438 1447 1452 1453 1451 1439 1423 1420 1420 1419 1421 1424 1427 1429 1430 1431 1433 1437 1439 1442 1445 1448 1451 1454 1458 1461 1465 1468 1472 1476 1480 1484 1487 1489 1492 1495 1498 1501 1504 1507 1511 1515 1518 1520 1521 1524 1525 1527 1530 1532 1534 1537 1539 1541 1543 1544 1546 1547 1548 1549 1550 1551 1551 1551 1552 1553
1421 1421 1422 1425 1426 1426 1423 1420 1421 1422 1425 1427 1428 1430 1431 1432 1434 1438 1443 1443 1437 1440 1446 1448 1445 1430 1416 1417 1417 1416 1418 1420 1422 1424 1425 1429 1433 1437 1439 1441 1444 1446 1449 1453 1456 1460 1463 1467 1471 1475 1478 1482 1485 1487 1490 1494 1497 1501 1504 1507 1510 1514 1517 1519 1521 1524 1526 1527 1529 1531 1533 1536 1539 1541 1542 1544 1545 1547 1548 1549 1550 1550 1550 1551 1551 1552
1418 1419 1420 1423 1424 1423 1421 1421 1422 1423 1424 1426 1427 1428 1428 1428 1430 1435 1441 1441 1439 1442 1442 1443 1442 1425 1414 1419 1420 1418 1418 1419 1421 1423 1425 1429 1433 1436 1439 1442 1445 1447 1450 1454 1456 1459 1463 1466 1470 1473 1477 1480 1483 1485 1489 1492 1496 1500 1503 1506 1509 1512 1516 1519 1522 1525 1527 1527 1528 1531 1533 1536 1538 1540 1542 1543 1545 1546 1547 1548 1549 1549 1550 1550 1551 1552
1417 1417 1419 1423 1423 1422 1422 1422 1422 1423 1425 1427 1426 1426 1426 1427 1426 1428 1433 1435 1437 1441 1438 1440 1440 1423 1414 1420 1420 1418 1419 1419 1421 1423 1425 1430 1433 1436 1439 1441 1445 1448 1451 1454 1457 1460 1463 1466 1469 1472 1475 1478 1481 1484 1487 1491 1495 1498 1502 1505 1508 1511 1515 1518 1522 1524 1526 1527 1528 1530 1532 1535 1537 1539 1540 1542 1544 1545 1546 1547 1547 1548 1549 1550 1550 1551
1415 1416 1417 1423 1429 1429 1429 1429 1428 1426 1424 1422 1424 1425 1424 1426 1428 1428 1431 1434 1437 1438 1435 1437 1435 1420 1414 1420 1419 1418 1420 1418 1421 1424 1425 1428 1432 1435 1439 1441 1445 1448 1450 1453 1456 1459 1462 1464 1467 1470 1473 1476 1480 1483 1486 1489 1493 1497 1500 1504 1506 1509 1513 1516 1520 1522 1524 1526 1527 1529 1532 1534 1536 1538 1539 1541 1542 1544 1545 1545 1546 1547 1548 1549 1550 1551
1415 1417 1415 1419 1427 1430 1430 1427 1422 1420 1419 1419 1421 1424 1424 1425 1426 1427 1431 1435 1438 1441 1437 1432 1426 1416 1414 1420 1420 1419 1420 1419 1421 1424 1425 1428 1430 1434 1438 1441 1444 1447 1449 1452 1455 1457 1460 1463 1466 1469 1472 1475 1478 1482 1485 1488 1491 1495 1499 1502 1505 1508 1511 1514 1517 1520 1522 1524 1526 1528 1530 1532 1534 1536 1538 1539 1541 1542 1543 1544 1545 1546 1547 1548 1549 1550
1414 1416 1413 1413 1415 1415 1415 1414 1411 1411 1416 1419 1420 1423 1424 1424 1424 1424 1430 1432 1433 1439 1436 1425 1420 1418 1415 1417 1422 1421 1420 1421 1422 1423 1425 1427 1430 1433 1437 1440 1443 1446 1448 1451 1454 1457 1460 1462 1465 1468 1471 1474 1477 1481 1484 1487 1490 1494 1497 1501 1504 1507 1509 1512 1515 1517 1520 1522 1524 1526 1528 1531 1533 1534 1536 1538 1539 1540 1542 1543 1544 1545 1546 1547 1549 1550
1413 1414 1413 1411 1410 1408 1407 1408 1409 1412 1417 1420 1421 1423 1424 1426 1426 1425 1427 1427 1428 1434 1431 1419 1421 1423 1414 1413 1420 1421 1420 1422 1422 1422 1424 1427 1429 1433 1436 1439 1442 1445 1448 1451 1453 1456 1459 1461 1464 1467 1470 1473 1476 1480 1483 1486 1489 1493 1496 1500 1503 1505 1508 1510 1513 1515 1518 1520 1522 1524 1526 1529 1531 1533 1535 1536 1538 1539 1540 1541 1542 1544 1545 1546 1548 1549
1412 1412 1411 1411 1410 1409 1408 1407 1406 1410 1415 1418 1420 1422 1424 1427 1429 1426 1426 1426 1425 1426 1424 1419 1423 1423 1414 1413 1419 1420 1421 1423 1423 1423 1425 1427 1430 1433 1435 1439 1441 1444 1447 1449 1452 1455 1457 1460 1462 1465 1468 1471 1475 1478 1482 1484 1488 1491 1495 1498 1501 1504 1506 1509 1511 1513 1516 1518 1520 1522 1525 1527 1529 1531 1533 1535 1536 1537 1539 1540 1541 1542 1544 1545 1546 1548
1411 1409 1409 1411 1409 1409 1411 1407 1404 1408 1413 1416 1416 1418 1421 1425 1427 1426 1425 1427 1426 1424 1424 1426 1428 1423 1416 1416 1419 1419 1421 1423 1423 1425 1426 1427 1430 1432 1434 1437 1440 1442 1445 1447 1450 1453 1456 1459 1461 1463 1467 1470 1473 1477 1480 1483 1486 1489 1493 1496 1499 1502 1505 1507 1510 1512 1514 1517 1519 1521 1523 1525 1528 1530 1531 1533 1535 1536 1537 1538 1539 1541 1542 1544 1545 1547
1410 1408 1409 1409 1407 1408 1410 1407 1405 1406 1410 1414 1415 1416 1419 1423 1425 1426 1426 1428 1430 1428 1427 1428 1425 1420 1417 1418 1419 1420 1421 1422 1424 1425 1425 1427 1430 1432 1434 1436 1438 1441 1443 1446 1449 1451 1454 1458 1460 1463 1466 1469 1473 1476 1478 1481 1485 1488 1491 1494 1497 1500 1503 1506 1508 1510 1512 1515 1517 1520 1522 1524 1526 1528 1530 1531 1533 1534 1535 1537 1538 1540 1541 1543 1544 1546
1408 1408 1409 1407 1405 1408 1411 1409 1407 1406 1409 1415 1417 1417 1421 1423 1424 1426 1426 1428 1428 1424 1426 1428 1421 1416 1419 1422 1422 1421 1420 1421 1423 1424 1425 1427 1429 1431 1433 1435 1437 1439 1442 1444 1447 1450 1453 1456 1459 1462 1465 1468 1471 1474 1477 1480 1483 1486 1490 1493 1495 1498 1501 1504 1506 1509 1511 1514 1517 1519 1521 1523 1525 1526 1528 1530 1531 1533 1534 1536 1537 1539 1541 1542 1544 1545
1407 1405 1405 1404 1403 1408 1412 1410 1407 1409 1416 1422 1418 1416 1418 1420 1422 1426 1426 1425 1424 1421 1424 1424 1417 1416 1422 1423 1422 1422 1421 1421 1422 1423 1425 1427 1429 1431 1433 1434 1436 1439 1441 1443 1446 1449 1452 1455 1458 1461 1464 1467 1470 1473 1476 1480 1483 1486 1489 1492 1495 1497 1500 1503 1505 1508 1510 1513 1515 1517 1519 1521 1523 1525 1527 1528 1530 1532 1533 1535 1536 1538 1540 1541 1543 1545
1407 1405 1403 1401 1402 1409 1414 1409 1408 1414 1420 1420 1415 1413 1416 1417 1418 1422 1422 1422 1422 1422 1423 1421 1419 1421 1424 1422 1421 1422 1421 1421 1421 1422 1424 1426 1428 1430 1432 1434 1436 1438 1441 1443 1446 1449 1452 1454 1458 1462 1465 1468 1471 1474 1478 1482 1484 1487 1489 1492 1494 1496 1498 1502 1504 1507 1509 1512 1514 1516 1518 1520 1522 1524 1526 1527 1529 1531 1532 1534 1536 1537 1539 1541 1543 1544
1407 1405 1405 1404 1403 1408 1412 1409 1414 1422 1419 1415 1416 1418 1418 1418 1417 1417 1420 1422 1423 1423 1423 1422 1422 1422 1421 1421 1421 1421 1421 1422 1422 1423 1424 1425 1426 1427 1430 1433 1434 1437 1440 1442 1446 1449 1452 1455 1459 1463 1466 1469 1472 1476 1480 1482 1484 1486 1489 1491 1494 1495 1498 1500 1503 1506 1508 1510 1512 1515 1517 1519 1521 1523 1525 1527 1528 1530 1532 1533 1535 1537 1538 1540 1542 1544
1405 1403 1404 1406 1406 1408 1409 1410 1416 1421 1417 1414 1418 1420 1419 1420 1418 1417 1421 1423 1422 1422 1421 1420 1420 1421 1420 1421 1420 1420 1422 1423 1423 1424 1425 1425 1426 1427 1429 1431 1434 1436 1439 1442 1445 1449 1452 1455 1458 1462 1465 1469 1472 1476 1479 1482 1484 1486 1488 1491 1493 1495 1498 1500 1502 1504 1507 1509 1511 1514 1516 1518 1520 1522 1524 1526 1527 1529 1531 1532 1534 1536 1537 1539 1541 1544
1403 1400 1396 1401 1409 1409 1409 1413 1415 1416 1416 1416 1416 1416 1416 1416 1415 1414 1418 1421 1421 1420 1420 1420 1420 1421 1420 1420 1420 1421 1423 1424 1425 1426 1425 1426 1427 1428 1430 1432 1435 1438 1441 1443 1447 1449 1452 1455 1458 1461 1464 1465 1469 1473 1477 1481 1483 1486 1488 1490 1491 1494 1496 1498 1500 1503 1505 1507 1510 1512 1515 1518 1520 1522 1523 1525 1526 1528 1530 1532 1533 1534 1536 1538 1539 1542
1400 1398 1390 1394 1409 1410 1407 1414 1418 1419 1420 1417 1413 1413 1413 1413 1414 1413 1415 1418 1419 1418 1419 1419 1419 1420 1420 1421 1422 1422 1423 1425 1427 1426 1424 1426 1428 1430 1432 1434 1436 1438 1441 1444 1447 1449 1452 1454 1458 1461 1463 1464 1467 1472 1476 1479 1482 1484 1486 1488 1489 1492 1494 1496 1499 1501 1503 1505 1508 1511 1514 1517 1519 1521 1522 1523 1525 1527 1529 1531 1532 1533 1535 1537 1538 1540
1397 1398 1390 1391 1405 1408 1404 1411 1419 1421 1419 1415 1413 1413 1412 1413 1415 1413 1414 1418 1418 1417 1418 1419 1418 1419 1420 1421 1422 1422 1422 1424 1425 1423 1423 1425 1427 1429 1432 1434 1436 1439 1441 1443 1446 1448 1450 1454 1457 1461 1462 1464 1468 1471 1474 1477 1480 1483 1485 1486 1488 1490 1492 1494 1496 1498 1501 1504 1507 1510 1513 1515 1516 1518 1520 1522 1524 1526 1528 1529 1531 1532 1534 1536 1538 1539
1393 1395 1393 1394 1404 1409 1407 1412 1419 1419 1416 1414 1413 1412 1413 1413 1412 1413 1419 1421 1417 1415 1418 1417 1417 1419 1420 1421 1423 1423 1423 1423 1422 1421 1421 1424 1426 1428 1431 1433 1435 1438 1440 1443 1445 1447 1450 1454 1457 1459 1461 1464 1467 1470 1473 1476 1478 1481 1484 1485 1487 1488 1491 1493 1495 1497 1501 1504 1506 1508 1511 1513 1514 1516 1518 1520 1522 1525 1527 1528 1530 1532 1533 1535 1536 1537
1400 1400 1402 1403 1407 1409 1410 1415 1420 1418 1414 1413 1413 1412 1413 1412 1411 1415 1421 1419 1415 1415 1417 1416 1417 1419 1420 1421 1423 1424 1424 1423 1421 1420 1421 1423 1426 1428 1430 1433 1435 1437 1440 1442 1444 1447 1450 1453 1455 1458 1460 1463 1466 1469 1472 1474 1477 1480 1482 1484 1485 1487 1489 1492 1495 1497 1501 1503 1505 1507 1510 1512 1514 1515 1517 1519 1521 1524 1526 1527 1529 1531 1532 1533 1534 1536
1409 1408 1409 1410 1413 1415 1414 1416 1420 1418 1414 1412 1412 1412 1411 1412 1414 1417 1418 1416 1415 1416 1416 1416 1417 1419 1420 1422 1423 1424 1424 1423 1422 1421 1422 1424 1427 1428 1430 1433 1435 1437 1440 1442 1444 1446 1449 1452 1455 1457 1460 1462 1465 1467 1470 1473 1475 1478 1480 1482 1483 1485 1488 1491 1494 1497 1500 1502 1504 1506 1508 1511 1513 1514 1516 1518 1520 1523 1525 1527 1528 1530 1532 1533 1534 1535
1416 1413 1413 1416 1420 1419 1416 1417 1420 1420 1416 1413 1412 1411 1411 1412 1415 1416 1415 1415 1416 1416 1415 1416 1418 1419 1421 1423 1424 1424 1424 1423 1423 1423 1424 1426 1428 1429 1431 1433 1434 1437 1439 1441 1443 1446 1448 1451 1454 1456 1459 1461 1464 1466 1469 1472 1474 1476 1478 1479 1481 1484 1487 1490 1493 1496 1499 1501 1503 1504 1507 1509 1511 1513 1515 1517 1519 1522 1524 1525 1527 1529 1531 1532 1533 1535
1418 1416 1417 1419 1419 1416 1416 1419 1421 1419 1416 1414 1413 1412 1413 1414 1414 1415 1415 1416 1417 1416 1417 1417 1418 1419 1421 1422 1424 1425 1425 1425 1425 1425 1425 1427 1428 1429 1431 1433 1435 1437 1439 1441 1443 1445 1448 1451 1453 1455 1458 1461 1463 1465 1468 1470 1472 1474 1476 1477 1480 1483 1486 1488 1491 1494 1497 1500 1502 1504 1506 1508 1510 1512 1514 1516 1519 1521 1523 1525 1526 1528 1529 1531 1532 1534
1421 1420 1420 1420 1420 1419 1420 1421 1420 1417 1416 1416 1414 1414 1415 1415 1415 1416 1416 1416 1417 1417 1418 1418 1418 1419 1421 1422 1423 1424 1424 1424 1425 1425 1426 1427 1428 1429 1431 1433 1435 1437 1439 1441 1444 1446 1448 1451 1453 1455 1458 1460 1462 1465 1467 1469 1471 1473 1474 1476 1480 1482 1484 1487 1490 1493 1496 1498 1500 1502 1505 1507 1509 1511 1513 1516 1518 1520 1521 1523 1525 1526 1528 1529 1531 1533
1424 1422 1421 1420 1421 1421 1421 1420 1419 1418 1417 1416 1415 1416 1416 1416 1416 1416 1416 1416 1417 1417 1418 1418 1419 1419 1420 1421 1421 1422 1422 1423 1423 1424 1425 1427 1428 1429 1431 1433 1435 1437 1439 1441 1443 1446 1448 1450 1453 1455 1457 1459 1462 1464 1466 1468 1471 1472 1473 1476 1479 1481 1483 1486 1489 1492 1494 1497 1499 1501 1504 1506 1508 1510 1512 1515 1517 1519 1520 1522 1523 1525 1526 1528 1530 1532
1424 1422 1422 1421 1421 1422 1423 1423 1422 1420 1419 1418 1418 1418 1418 1417 1417 1417 1417 1417 1417 1418 1418 1419 1419 1419 1420 1420 1420 1420 1421 1421 1422 1423 1425 1426 1427 1429 1430 1432 1434 1436 1438 1441 1443 1445 1447 1449 1452 1454 1457 1459 1461 1463 1465 1468 1469 1470 1472 1476 1478 1480 1482 1484 1487 1490 1492 1495 1497 1500 1502 1503 1506 1508 1511 1513 1515 1517 1519 1521 1522 1524 1525 1526 1528 1530
1424 1423 1423 1424 1423 1423 1424 1424 1423 1423 1422 1421 1421 1420 1420 1420 1420 1420 1419 1419 1419 1419 1419 1419 1419 1419 1419 1419 1420 1420 1420 1421 1422 1423 1424 1425 1427 1428 1430 1431 1433 1435 1437 1440 1442 1444 1446 1448 1450 1453 1456 1458 1460 1462 1464 1466 1468 1469 1472 1476 1478 1479 1481 1483 1486 1488 1491 1493 1495 1498 1500 1502 1504 1506 1508 1511 1513 1516 1517 1519 1520 1522 1523 1525 1526 1528
1425 1424 1425 1425 1424 1423 1425 1426 1425 1425 1424 1424 1423 1423 1423 1423 1422 1422 1422 1422 1421 1421 1421 1421 1421 1420 1420 1420 1420 1420 1420 1421 1422 1422 1423 1425 1427 1428 1429 1430 1432 1434 1436 1439 1441 1443 1445 1447 1449 1452 1455 1457 1459 1461 1463 1464 1466 1469 1472 1474 1476 1478 1480 1483 1485 1487 1490 1492 1494 1496 1499 1501 1503 1504 1506 1509 1511 1514 1517 1518 1520 1521 1523 1524 1526 1528
1425 1426 1426 1425 1424 1425 1428 1428 1427 1426 1426 1425 1425 1424 1424 1424 1424 1424 1424 1424 1424 1423 1423 1423 1422 1422 1422 1422 1421 1421 1421 1421 1422 1422 1423 1424 1426 1428 1429 1430 1432 1434 1436 1438 1440 1442 1444 1446 1449 1451 1453 1456 1458 1460 1462 1463 1465 1468 1470 1472 1474 1476 1479 1481 1483 1486 1488 1490 1492 1494 1497 1499 1501 1503 1505 1507 1510 1512 1515 1517 1519 1521 1522 1524 1526 1528
1427 1427 1427 1426 1425 1427 1428 1428 1428 1428 1427 1426 1426 1426 1425 1425 1425 1425 1425 1426 1425 1425 1425 1424 1424 1424 1424 1423 1423 1423 1422 1422 1422 1422 1423 1424 1425 1427 1428 1429 1431 1433 1435 1437 1439 1441 1443 1446 1448 1450 1452 1455 1457 1459 1460 1462 1464 1466 1468 1470 1472 1475 1477 1479 1481 1483 1485 1488 1490 1493 1495 1498 1499 1501 1503 1506 1508 1511 1513 1515 1517 1519 1521 1522 1525 1527